Lawrence, MA

4:05 AM EDT on July 28, 2017 (GMT -0400)
Lawrence Municipal

Weather History for KLWM - May, 2014

Change the Weather History Date:

Saturday, May 10, 2014

  Actual Average Record
Temperature  
Mean Temperature 66 °F -  
Max Temperature 81 °F 65 °F 93 °F (1979)
Min Temperature 52 °F 45 °F 32 °F (1947)
Cooling Degree Days 1    
Growing Degree Days 16 (Base 50)    
Moisture  
Dew Point 57 °F    
Average Humidity 76    
Maximum Humidity 90    
Minimum Humidity 39    
Precipitation  
Precipitation 0.07 in - - ()
Sea Level Pressure  
Sea Level Pressure 29.86 in    
Wind  
Wind Speed 6 mph (SW)    
Max Wind Speed 15 mph    
Max Gust Speed 28 mph    
Visibility 8 miles    
Events Rain    
Averages and records for this station are not official NWS values.
T = Trace of Precipitation, MM = Missing Value Source: NWS Daily Summary

Daily Weather History Graph

Daily Weather History Graph

Search for Another Location

Airport or City:

Trip Planner

Search our weather history database for the weather conditions in past years. The results will help you decide how hot, cold, wet, or windy it might be!

Date:

Astronomy

May. 10, 2014 Rise Set
Actual Time 5:27 AM EDT 7:54 PM EDT
Civil Twilight 4:55 AM EDT 8:26 PM EDT
Nautical Twilight 4:16 AM EDT 9:06 PM EDT
Astronomical Twilight 3:31 AM EDT 9:51 PM EDT
Moon 3:41 PM EDT (5/10) 3:05 AM EDT (5/10)
Length of Visible Light 15h 31m
Length of Day
14h 27m
Waxing Gibbous, 82% of the Moon is Illuminated
May 10
Waxing Gibbous
May 14
Full
May 21
Last Quarter
May 28
New
Jun 5
First Quarter

Hourly Weather History & Observations

Time (EDT) Temp. Heat Index Dew Point Humidity Pressure Visibility Wind Dir Wind Speed Gust Speed Precip Events Conditions
12:54 AM 52.0 °F - 46.9 °F 83% 30.09 in 8.0 mi NNE 3.5 mph - N/A   Overcast
1:54 AM 53.1 °F - 46.9 °F 80% 30.04 in 10.0 mi SE 3.5 mph - N/A   Overcast
2:54 AM 55.9 °F - 52.0 °F 87% 29.99 in 10.0 mi Calm Calm - N/A   Overcast
3:54 AM 54.0 °F - 50.0 °F 86% 29.97 in 10.0 mi NNE 3.5 mph - N/A   Overcast
4:43 AM 54.0 °F - 50.0 °F 86% 29.94 in 10.0 mi Calm Calm - N/A   Overcast
4:54 AM 55.0 °F - 50.0 °F 83% 29.94 in 10.0 mi Calm Calm - N/A   Overcast
5:54 AM 57.0 °F - 53.1 °F 87% 29.92 in 10.0 mi SW 4.6 mph - N/A   Overcast
6:54 AM 64.0 °F - 59.0 °F 84% 29.89 in 9.0 mi SSW 8.1 mph - N/A   Overcast
7:26 AM 64.0 °F - 60.1 °F 87% 29.89 in 8.0 mi SW 9.2 mph - N/A   Overcast
7:54 AM 64.9 °F - 60.1 °F 84% 29.90 in 8.0 mi SSW 10.4 mph - N/A   Overcast
8:19 AM 64.9 °F - 60.1 °F 84% 29.88 in 2.5 mi SSW 9.2 mph 17.3 mph 0.02 in Rain Rain
8:32 AM 64.0 °F - 60.1 °F 87% 29.87 in 4.0 mi SSW 5.8 mph - 0.02 in Rain Light Rain
8:39 AM 64.0 °F - 61.0 °F 90% 29.87 in 4.0 mi SSW 4.6 mph - 0.02 in Rain Light Rain
8:54 AM 64.0 °F - 61.0 °F 90% 29.87 in 3.0 mi SSW 5.8 mph - 0.03 in Rain Light Rain
9:54 AM 64.0 °F - 61.0 °F 90% 29.85 in 4.0 mi SSW 5.8 mph - 0.02 in Rain Light Rain
10:54 AM 64.0 °F - 61.0 °F 90% 29.86 in 4.0 mi SSW 5.8 mph - 0.02 in   Overcast
11:54 AM 66.9 °F - 62.1 °F 84% 29.84 in 6.0 mi WSW 8.1 mph - N/A   Haze
12:54 PM 72.0 °F - 61.0 °F 68% 29.82 in 10.0 mi WSW 13.8 mph - N/A   Partly Cloudy
1:54 PM 75.9 °F - 59.0 °F 56% 29.81 in 10.0 mi WSW 11.5 mph - N/A   Clear
2:54 PM 78.1 °F - 55.9 °F 46% 29.79 in 10.0 mi West 12.7 mph - N/A   Clear
3:54 PM 79.0 °F - 55.0 °F 44% 29.77 in 10.0 mi WSW 9.2 mph 19.6 mph N/A   Partly Cloudy
4:54 PM 80.1 °F 79.9 °F 53.1 °F 39% 29.76 in 10.0 mi WSW 11.5 mph 21.9 mph N/A   Clear
5:54 PM 78.1 °F - 54.0 °F 43% 29.75 in 10.0 mi SW 10.4 mph - N/A   Overcast
6:54 PM 73.9 °F - 57.0 °F 55% 29.75 in 10.0 mi SSW 15.0 mph 27.6 mph 0.00 in Rain Light Rain
7:54 PM 66.9 °F - 59.0 °F 76% 29.78 in 10.0 mi South 11.5 mph 23.0 mph 0.00 in   Clear
8:54 PM 66.0 °F - 59.0 °F 78% 29.80 in 10.0 mi SW 6.9 mph - N/A   Clear
9:54 PM 66.0 °F - 57.9 °F 75% 29.80 in 10.0 mi SW 9.2 mph 19.6 mph 0.00 in Rain Light Rain
10:54 PM 64.9 °F - 57.0 °F 75% 29.79 in 10.0 mi SW 9.2 mph - 0.00 in   Clear
11:54 PM 64.0 °F - 57.0 °F 78% 29.78 in 10.0 mi Variable 6.9 mph - N/A   Clear